Flag for Canada Weather past 2 weeks in Welland, Ontario, Canada

Now
71 °F

Mild.


Feels Like: 74 °F
Forecast: N/A
Wind: 21 mph from West

Location: Port Colborne Airport

Current Time: Aug 3, 2015 at 7:33:14 PM

Latest Report: Aug 3, 2015 at 7:00 PM


Visibility: N/A

Pressure: 29.76 "Hg

Humidity: 71%

Dew point: 62 °F

Location of WellandLocation

Historic Weather in Welland — Graph

°F

Welland temperature yesterday

Maximum temperature yesterday: 78 °F (at 10:00 PM)
Minimum temperature yesterday: 69 °F (at 10:00 AM)
Average temperature yesterday: 73 °F

Past Weeks' High & Low Weather Summary

 TemperatureHumidityPressure
High82 °F (Jul 29, 5:00 PM)95% (Jul 20, 12:00 AM)30.05 "Hg (Jul 20, 12:00 AM)
Low61 °F (Jul 22, 7:00 AM)37% (Jul 21, 7:00 PM)29.65 "Hg (Jul 21, 4:00 AM)
Average71 °F71%29.89 "Hg
* Reported Jul 19 6:00 PM — Aug 3 6:00 PM, Welland, Weather by CustomWeather, © 2015

Note: Actual official high and low records may vary slightly from our data, if they occured in-between our weather recording intervals... More about our weather records

Advertising

Welland weather history for previous 24 hours

 ConditionsComfort  
Time TempWeatherWind HumidityBarometerVisibility
6:00 PM
Mon, Aug 3
71 °FMild.18 mph72%29.75 "HgN/A
5:00 PM71 °FMild.23 mph72%29.78 "HgN/A
4:00 PM72 °FMild.23 mph68%29.78 "HgN/A
3:00 PM71 °FMild.20 mph73%29.78 "HgN/A
2:00 PM71 °FMild.17 mph75%29.78 "HgN/A
1:00 PM71 °FMild.18 mph72%N/AN/A
12:00 PM70 °FMild.21 mph74%N/AN/A
11:00 AM70 °FMild.20 mph76%N/AN/A
10:00 AM70 °FMild.22 mph70%29.76 "HgN/A
9:00 AM70 °FMild.25 mph78%29.74 "HgN/A
8:00 AM70 °FMild.30 mph76%29.72 "HgN/A
7:00 AM70 °FMild.30 mph75%29.70 "HgN/A
6:00 AM70 °FMild.29 mph71%29.66 "HgN/A
5:00 AM70 °FMild.31 mph73%29.69 "HgN/A
4:00 AM69 °FMild.26 mph77%29.69 "HgN/A
3:00 AM69 °FMild.22 mph77%29.71 "HgN/A
2:00 AM68 °FMild.21 mph75%29.73 "HgN/A
10:00 PM
Sun, Aug 2
78 °FWarm.26 mph61%29.67 "HgN/A
9:00 PM77 °FMild.15 mph70%29.70 "HgN/A
8:00 PM75 °FMild.7 mph76%29.74 "HgN/A
7:00 PM76 °FMild.12 mph72%29.74 "HgN/A
Weather by CustomWeather, © 2015

See weather overviewHow to use our weather pages